Location: Bukit Lungun
(2.6833°N, 113.9667°E)
Time: 10:50:46
(UTC+00:00)

Meteor 2-4 Rocket - Pass Details

Date: 02 March 2021
Orbit: 799 x 908 km, 81.2° (Epoch: 20 April)

Event Time Altitude Azimuth Distance (km) Brightness Sun altitude
Rises 12:21:04 0° 356° (N) 3,513 6.9 -26.3°
Reaches altitude 10° 12:23:31 10° 356° (N) 2,579 6.2 -26.9°
Maximum altitude 12:29:26 86° 86° (E) 912 3.7 -28.4°
Enters shadow 12:29:37 83° 137° (SE) 916 3.7 -28.5°
Exits shadow 12:31:39 41° 172° (S) 1,286 4.5 -29.0°
Drops below altitude 10° 12:35:20 10° 174° (S) 2,577 6.2 -29.9°
Sets 12:37:47 0° 174° (S) 3,510 6.9 -30.5°
